India Forums Logo

Pyaar Kii Ye Ek Kahaani

India Forums > Forum Index > Pyaar Kii Ye Ek Kahaani
Pyaar Kii Ye Ek Kahaani is a contemporary, visual, and visceral Romeo and Juliet story of the ultimate forbidden love affair - between a non human and a mortal - Dangerous Love!
...
<< | 294 | 295 | 296 | 297 | 298 | 299 | 300 | 301 | 302 | 303 | 304 | 305 | 306 | 307 | 308 | 309 | 310 | 311 | 312 | ... >>
TIDTopic SubjectStart DateLast Entry
3219230*~* Happy Birthday Anji aka anjali.K *~*9/29/2012 1:19:01 PM10/16/2012 4:20:15 AM
3219848Rithvik and Sukirti on SBB9/30/2012 4:34:32 AM10/8/2012 11:56:16 AM
3219913New FF : Fanaa..Destroy in Love (chaptr 11 pg 56)9/30/2012 5:29:49 AM6/28/2014 11:21:02 PM
3219975::New FF: Do Jism Ek Jaan::9/30/2012 6:47:47 AM5/13/2013 11:02:46 PM
3220164My Friend Ghost (ON HOLD)9/30/2012 9:46:41 AM10/29/2012 8:54:44 AM
3220272Hey guys9/30/2012 10:56:22 AM10/2/2012 12:28:22 AM
3220391Rp 61: Months passed but still Hope TO See PKYEK9/30/2012 12:48:54 PM10/26/2012 12:01:02 AM
3220707Tum bhi to mere ho Abhayendra...HUMARI ADHOORI KAHANI10/1/2012 12:59:24 AM11/8/2012 4:35:48 AM
3221306jeh jiya fans come here10/1/2012 9:24:45 AM10/9/2012 6:53:54 PM
3221428Happy Birthday Indu aka lost_in_love :)10/1/2012 10:20:32 AM10/5/2012 1:09:33 PM
3222003VivuS' nominated for ITA :D10/1/2012 4:27:11 PM11/8/2012 4:50:19 AM
3222356The unknown desire10/2/2012 2:08:27 AM10/4/2012 2:29:32 AM
3223418Frowning U Obsessive Tormentor ADULT (HOLD Pg 13)10/2/2012 1:00:20 PM12/16/2012 6:19:55 AM
3223922~~SHIRTLESS~~10/3/2012 2:05:55 AM11/8/2012 4:47:05 AM
3223944i neeeddd heeelllppp10/3/2012 2:26:40 AM10/3/2012 10:44:16 PM
3224854SUKIRTI PICS ; looking gorgeous!!!10/3/2012 11:33:14 AM11/8/2012 3:50:22 AM
3224980Beautifully Dead FF Abhiya/Jisha/Maaneet/Chandeena10/3/2012 12:31:04 PM4/9/2013 1:48:59 PM
3225467Show with d same theme as PKYEK !!!10/3/2012 11:44:40 PM11/10/2012 8:10:31 AM
3225589Vabhz tweets -- PKYEKians meeting10/4/2012 1:27:39 AM10/10/2012 7:23:44 AM
3227314TOI: Suku in Shapath10/5/2012 3:39:58 AM10/7/2012 7:12:12 AM
3227321TB:London was an unforgettable journey: Sukirti10/5/2012 3:47:09 AM11/8/2012 4:43:07 AM
3227768FF:Love & Hatred:Sides of the same coin!CS UPDATED10/5/2012 7:40:26 AM12/3/2012 10:43:56 AM
3228489kash ye pal tham jaaye...10/5/2012 1:11:13 PM10/6/2012 10:59:38 PM
3229202ITS NEARLY A YEAR!!!!!10/6/2012 5:09:17 AM10/9/2012 11:11:48 AM
3229702A Trip To Vampires House (ON HOLD)10/6/2012 1:05:16 PM10/30/2012 3:35:23 AM
3229730yaadein...10/6/2012 1:35:31 PM10/11/2012 7:59:02 AM
3229980phata poster prt 4.. ROFL10/6/2012 10:34:04 PM10/23/2012 4:15:16 AM
3230063sukirti missed the chance10/7/2012 12:50:16 AM10/9/2012 7:24:50 AM
3231081Radha...10/8/2012 2:02:20 AM10/15/2012 11:13:41 PM
3231383ATTENTION..!! Have a look.. :D10/8/2012 7:03:44 AM10/10/2012 7:42:44 AM
3231430Miss you guys... :'(10/8/2012 7:39:32 AM10/11/2012 5:14:23 AM
3232485new member!!!pls do a favour..10/9/2012 1:26:05 AM10/10/2012 10:20:09 AM
3232503RE-START MISSION10/9/2012 1:44:19 AM10/14/2012 11:47:24 PM
3232520new article of sukirti on tc10/9/2012 2:02:00 AM10/10/2012 3:21:11 AM
3232926MY DESTINY CH 37 3 june PG 1410/9/2012 7:53:27 AM6/5/2013 12:54:39 PM
3233479ARE YOU GUYS VOTING FOR VIVIAN ITA AWARD10/9/2012 11:45:43 AM11/8/2012 4:33:48 AM
3233614Abhiya#110 Mohabbat Ka Sahara Hain Tu <310/9/2012 1:18:59 PM11/8/2012 12:12:08 AM
3234594vivah 2 marry soon10/10/2012 7:49:39 AM10/11/2012 9:58:39 AM
3235740Vabhz tweets - Suku/ Vabhz at party10/11/2012 12:36:10 AM10/15/2012 8:14:04 AM
3235785Ametz OS: D start of a fairytale...Background of a dark love story!10/11/2012 1:12:17 AM11/13/2012 11:57:45 PM
3235824SUkirti in SBS10/11/2012 1:50:48 AM10/13/2012 12:29:47 AM
3237045sukirti new pic10/11/2012 2:49:25 PM10/14/2012 4:09:16 AM
3237284Ratta maar...10/11/2012 10:17:28 PM10/14/2012 3:20:23 AM
3237379fanaa tere ishq mein [L]10/12/2012 12:40:28 AM11/8/2012 4:28:10 AM
3237414TB:Madhura Naik gets engagement ring from stalker!10/12/2012 1:17:57 AM10/14/2012 1:48:30 AM
3238983Share with u...plzz tell true wht u feel...10/12/2012 11:18:35 PM10/15/2012 4:55:42 AM
3239049misha kabir VM10/13/2012 12:03:43 AM11/8/2012 4:32:53 AM
3239207Pics of Vivian from PKYEK days.10/13/2012 2:53:52 AM11/8/2012 3:41:28 AM
3239498Wake up ppl!!10/13/2012 7:54:05 AM10/14/2012 8:37:32 AM
3239821ABHIYA/VISU :)10/13/2012 12:31:02 PM11/8/2012 4:18:32 AM
3239975MISSS PKYEK10/13/2012 5:25:23 PM11/8/2012 4:29:38 AM
3240143Suku really a star...10/14/2012 12:23:01 AM11/8/2012 4:32:46 AM
3240229new tc article on sukirti10/14/2012 2:08:17 AM11/8/2012 4:20:39 AM
3240317Share it,cum'on! :P10/14/2012 3:49:27 AM10/16/2012 9:41:48 AM
3240522**News Flash**[source added]10/14/2012 8:42:39 AM10/15/2012 8:49:13 AM
3240544:P10/14/2012 9:04:11 AM10/15/2012 12:43:19 PM
3240680Do NOT Enter This Post(unless you like Piya a lot) :P10/14/2012 11:02:07 AM11/8/2012 4:25:23 AM
3240722Suku In Hum Ne Li Hai ... Shapath - Pics10/14/2012 11:44:52 AM11/8/2012 4:02:39 AM
3241152Abhiya ff: My love for you10/15/2012 12:51:48 AM11/19/2012 12:09:15 PM
3241195The Murder Case...lolz10/15/2012 1:50:58 AM10/19/2012 4:10:00 PM
3241242All Vishalians- a request10/15/2012 2:38:39 AM10/18/2012 8:58:57 PM
3241284TICK TOK TICK TOK TICK...10/15/2012 3:25:10 AM10/17/2012 9:14:48 AM
3241350forum today more active...10/15/2012 4:25:41 AM10/15/2012 4:41:16 AM
3242236sukirti10/15/2012 1:55:51 PM10/21/2012 9:46:13 PM
3242401Bday photos10/15/2012 9:11:02 PM11/8/2012 4:19:27 AM
3242544VAMPIRE haseena is bck :o10/16/2012 12:24:36 AM11/8/2012 3:47:22 AM
3242685boom10/16/2012 3:09:29 AM10/16/2012 2:03:10 PM
3242708yeh kya ho raha hai?:D10/16/2012 3:35:39 AM11/8/2012 4:09:32 AM
3242836TB:Madhura Naik to enter..& celebs on Navaratri10/16/2012 5:27:02 AM10/16/2012 11:20:00 AM
3242981The connection B/w Hindi movies and Abhay10/16/2012 7:11:30 AM10/17/2012 6:53:03 AM
3243805journey of pkyek :D10/16/2012 12:16:16 PM11/8/2012 3:18:37 AM
3244833Happy anniversary pkyek10/17/2012 6:56:37 AM10/18/2012 3:11:36 AM
3245127Please Pay Attention10/17/2012 9:31:53 AM11/8/2012 4:06:52 AM
3245222I Me Myself-Vivian10/17/2012 10:00:50 AM11/8/2012 3:29:46 AM
3245256Dur raho mujhse!!!!!!10/17/2012 10:09:30 AM11/8/2012 4:26:04 AM
<< | 294 | 295 | 296 | 297 | 298 | 299 | 300 | 301 | 302 | 303 | 304 | 305 | 306 | 307 | 308 | 309 | 310 | 311 | 312 | ... >>